Volver al catálogo

STARLINK-37092

ActivoComunicacionesVLEO
NORAD 68240·PAYLOAD·🇺🇸 United States

Lanzado Mar 17, 2026 desde Vandenberg Space Force Base

Loading…

Próximos Pases (próximas 24 horas)

TLE

ActualizadoSource: CelesTrak SupGP

Época: Sep 15, 2026, 04:17 UTC

1 68240C 26054J   26258.17895833  .00021254  00000+0  62801-3 0  2585
2 68240  53.1564 126.8001 0001233  84.4369 261.4544 15.34376300    16

Sigue STARLINK-37092 en tiempo real con AllMySat

Download on the App Store